星链-31893 (STARLINK-31893 )

导读 | 星芒AI

STARLINK-31893 是 SpaceX Starlink 项目中的一颗低轨通信卫星,属于第三代星链卫星(v1.5)。它于2023年发射,运行在约550公里高的近地轨道,旨在为全球用户提供高速互联网服务。该卫星配备先进相控阵天线和激光通信系统,支持更高效的星间数据传输。作为 Starlink 卫星群的一部分,它有助于提升网络覆盖和连接稳定性,尤其在偏远地区和航空、航海等移动场景中发挥重要作用。

基本信息
目录编号:
59792
目录名称:
STARLINK-31893
国际标识:
2024-093L
轨道中心:
EARTH
卫星名称:
星链-31893
卫星全名:
星链-31893 (STARLINK-31893 )
卫星状态:
已陨落 最后检测时间 2025-04-07
发射日期:
2024-05-18 UTC
国别 :
美国 (US)
星等 :
--
轨道信息
数据来源 国际轨道数据
星历时间: 2025-04-07T14:30:39+0800
轨道信息已过期256天
半长轴: 6597.961km
偏心率: 0.0010306
轨道倾角: 42.980°
近地点辐角 328.513°
升交点赤经 281.295°
平近点角 206.204°
近地点: 213.026km
远地点: 226.626km
周期: 88.894分钟
每日圈数: 16.199
详细信息
固有亮度:
5
最大亮度:
1.5
卫星平台:
Starlink v2.0 mini
覆盖范围:
全球
运营商:
太空探索技术公司
运营商所在国:
美国
制造商(研发单位):
太空探索技术公司
制造商所在国:
美国
使用方式:
暂无
卫星简介
星链(Starlink)计划是由太空探索技术公司(SpaceX)提出的一个巨型低轨卫星互联网星座项目,计划在2019年至2024年间在太空搭建由约1.2万颗卫星组成的“星链”网络,其中1584颗将部署在地球上空550千米处的近地轨道,并从2020年开始工作。该卫星仍在工作。